Weather in Zhukovskaya

Russia / Rostov Oblast     47°37′21″N   42°29′44″E
temp.,
°C
wind,
m/s
gust,
m/s
humid.,
%
clouds,
%
prec.,
mm/h
press.,
hPa
HPBL,
m
1 march, mon
mon100:000wsw349386 0.0 101990
03:00+1w359888 0.1 1020205
06:00+1w3698100 0.7 1021260
09:00+1wnw2398100 1.3 1023166
12:00+2wnw2396100 0.4 1025201
15:00+2nw2396100 0.8 1025231
18:00+1nne2397100 0.2 1026186
21:00−1ne239590 0.2 102737
2 march, tue
tue200:00−2n239233 0.0 102836
03:00−2nnw228821 0.0 102835
06:00−2wsw238920 0.0 102781
09:000wsw578224 0.0 1027516
12:00+4wsw7106370 0.0 10241250
15:00+5wsw9126277 0.0 10211276
18:00+2w7146888 0.0 1019808
21:00+1w8167194 0.0 1018744
3 march, wed
wed300:00+1wsw91682100 0.0 1015712
03:00+1wsw91596100 0.1 1014791
06:00+1w81397100 0.9 1012711
09:00+1wnw71197100 2.4 1013523
12:00+2nw6981100 0.5 1015902
15:00+2nw696798 0.6 10171292
18:00+1nw6117999 0.2 1019604
21:00−1nw5117789 0.3 1022579
4 march, thu
thu400:00−2wnw49780 0.0 1023364
03:00−2w47760 0.0 1024237
06:00−2wsw48780 0.0 1024270
09:00+1wsw610620 0.0 1025627
12:00+5wsw710512 0.0 10231069
15:00+6wsw710501 0.0 10221227
18:00+2sw59710 0.0 1020194
21:00+1sw513780 0.0 1020313
5 march, fri
fri500:000sw513790 0.0 1019339
03:000sw614794 0.0 1018378
06:000sw61286100 0.0 1018440
09:00+3wsw8137555 0.0 1018631
12:00+7sw811540 0.0 10171009
15:00+8sw811510 0.0 10161105
18:00+5sw510640 0.0 1015269
21:00+3ssw512706 0.0 1016265